Regional Weather Roundup
Issued by NWS

Home | Current Version | Previous Version | Text Only | Print | Product List | Glossary On
Versions: 1 2 3 4 5 6 7 8 9 10 11 12 13 14 15 16 17 18 19 20 21 22 23 24 25 26 27 28 29 30 31 32 33 34 35 36 37 38 39 40 41 42 43 44 45 46 47 48 49 50
000
ASHW40 PHFO 240843
RWRHI

WEATHER ROUNDUP FOR HAWAII
NATIONAL WEATHER SERVICE HONOLULU HI
1000 PM HST WED AUG 23 2017

THIS IS AN AUTOMATED REPORT THAT HAS NOT BEEN QUALITY CONTROLLED.

NOTE..."FAIR" INDICATES FEW OR NO CLOUDS BELOW 12,000 FEET WITH NO
SIGNIFICANT WEATHER AND/OR OBSTRUCTIONS TO VISIBILITY.

* - THESE SITES REPORT LIMITED FIELDS
# - BUOY DATA PROVIDED BY PACIFIC ISLANDS OCEAN OBSERVING SYSTEM.

HIZ001>004-240900-
KAUAI-NIIHAU-

CITY           SKY/WX    TMP DP  RH WIND       PRES   REMARKS
LIHUE APT      PTCLDY    81  70  69 E18       30.08R
PORT ALLEN*      N/A     79 N/A N/A NE14G20     N/A
POIPU*           N/A     79 N/A N/A NE9G21      N/A
PRINCEVILLE*     N/A     77 N/A N/A SE6         N/A
KOKOLE POINT*  NOT AVBL
MOLOAA DAIRY*    N/A     79  70  73 E6G14       N/A
WAIMEA HTS*      N/A     79  66  65 E9G15       N/A
PUU OPAE*        N/A     70  59  68 N1G10       N/A
PUU LUA*       NOT AVBL
MAKAHA RIDGE*    N/A     72  59  64 CALM        N/A
$$

HIZ005>011-240900-
OAHU-

CITY           SKY/WX    TMP DP  RH WIND       PRES   REMARKS
HONOLULU       PTCLDY    75  66  73 E17       30.04S
KALAELOA       PTCLDY    80  66  62 E8G21     30.06R
KANEOHE MCB    NOT AVBL
WHEELER FIELD  MOCLDY    76  66  70 E9G17     30.06S
BELLOWS*         N/A    N/A N/A N/A E21         N/A
KAHUKU*          N/A    N/A N/A N/A NE10G18     N/A
WHEELER*         N/A    N/A N/A N/A NE3G9       N/A
WAIANAE HARBOR   N/A    N/A N/A N/A E7G14       N/A
DILLINGHAM*      N/A     91  81  70 W2          N/A  HX 110
KAHUKU TRN*      N/A     88  79  74 W12G26      N/A  HX 102
KAWAILOA*        N/A     73  66  78 E10G23      N/A
KII*             N/A     79  70  73 E20G26      N/A
MAKUA RANGE*     N/A     90  75  62 W9G18       N/A  HX 100
OAHU FOREST NW NOT AVBL
SCHOFIELD BRK*   N/A    N/A N/A N/A MISG        N/A
SCHOFIELD S*   NOT AVBL
WAIANAE VLY*   NOT AVBL
KUAOKALA*      NOT AVBL
HONOULIUULI*   NOT AVBL
MOKUOLOE IS*   NOT AVBL
PALEHUA*         N/A     68 N/A N/A NE14        N/A
WAIAWA PHB*    NOT AVBL
$$

HIZ012>013-240900-
MOLOKAI-

CITY           SKY/WX    TMP DP  RH WIND       PRES   REMARKS
MOLOKAI AIRPT  CLEAR     77  66  68 NE15G25   30.05S
KALAUPAPA      NOT AVBL
MAKAPULAPAI*     N/A     79  68  69 E16G26      N/A
MOLOKAI 1*     NOT AVBL
PUU ALII*        N/A     61  59  93 NE3G13      N/A
$$

HIZ016-240900-
KAHOOLAWE-

CITY           SKY/WX    TMP DP  RH WIND       PRES   REMARKS
KAHOOLAWE*     NOT AVBL
HAKIOAWA*        N/A     73  67  82 MISG      30.45S
HONOKANAIA*      N/A     78  66  66 NE15G33   29.97R
KANELOA*         N/A     75  68  78 E18G35      N/A
KEALIALALO*    NOT AVBL
LUA MAKIKA*    NOT AVBL
$$

HIZ014>015-240900-
LANAI-

CITY           SKY/WX    TMP DP  RH WIND       PRES   REMARKS
LANAI CITY     FAIR      72  67  84 NE13      30.09S
LANAI 1*       NOT AVBL
$$

HIZ017>028-240900-
MAUI-

CITY           SKY/WX    TMP DP  RH WIND       PRES   REMARKS
KAHULUI        PTCLDY    78  70  76 NE21G29   30.04S
KAPALUA-W MAUI NOT AVBL
HANA AIRPORT   CLOUDY    75  70  83 E6        30.10F
HANA*          NOT AVBL
HALEAKALA SUMM NOT AVBL
MAALAEA BAY*     N/A     79 N/A N/A N18G29      N/A
HALEAKALA*     NOT AVBL
KAUPO GAP*     NOT AVBL
KULA 1*          N/A    N/A N/A N/A E5          N/A
$$

HIZ023>026-240900-
BIG ISLAND OF HAWAII COAST AND LOWER SLOPES-

CITY           SKY/WX    TMP DP  RH WIND       PRES   REMARKS
KAILUA KONA    PTCLDY    80  66  62 SE6       29.97S
HILO           MOCLDY    72  68  88 SW5       30.07S
HONOKAA*         N/A     70 N/A N/A VRB1        N/A
KAWAIHAE MWT*    N/A     81 N/A N/A NE2         N/A
KAWAIHAE*        N/A     81 N/A N/A NE3       29.98R
SOUTH POINT*     N/A     73 N/A N/A VRB15G22    N/A
UPOLU AIRPORT* NOT AVBL
KAMUELA*         N/A     64  61  88 NE21      30.12R
HAKALAU*         N/A     43  41  93 SW3         N/A
KALOKO-HONOKO*   N/A     81  68  65 SE10G16   29.96S
PALI 2*          N/A     66  55  68 S17G29      N/A
KEALAKOMO*       N/A     79  64  61 N18G29      N/A
KAUPULEHU*       N/A     73  64  73 SE3G12      N/A
KAPAPALA*        N/A     65  65 100 N3          N/A
LOWER KAHUKU*    N/A    N/A N/A N/A VRB1        N/A
PUHE CS*         N/A     82  57  42 E5G15       N/A
PUHO CS*         N/A     79  68  69 E2          N/A
PTA KEAMUKU*     N/A     61  50  67 E8G22       N/A
WAIKOLOA*        N/A    N/A N/A N/A E15G31      N/A
$$

HIZ027>028-240900-
BIG ISLAND OF HAWAII INTERIOR AND SUMMMITS-

CITY           SKY/WX    TMP DP  RH WIND       PRES   REMARKS
BRADSHAW FIELD CLOUDY    52  36  55 SE7       30.36R
MK VISITOR CEN   N/A     57  10  15 N9          N/A
MAUNA KEA*       N/A     36   5  27 NE30        N/A  WCI  22
MAUNA LOA*       N/A     46   5  18 MISG        N/A
MAUNA LOA 1*   NOT AVBL
PTA KIPUKA*      N/A     75  73  94 W3          N/A
PTA RANGE 17*    N/A     57  46  67 W12G23      N/A
PTA WEST*        N/A     79  59  50 SE13G20     N/A
NENE CABIN*      N/A     50  50 100 N3          N/A
AHUMOA*          N/A     53  43  69 NE3         N/A
PTA PORTABLE*  NOT AVBL
PUU MALI*        N/A     66  14  13 E5G12       N/A
$$

HIC003-240900-
NORTHWEST ISLANDS-

CITY           SKY/WX    TMP DP  RH WIND       PRES   REMARKS
MIDWAY ISLAND  PTCLDY    81  73  78 E9        30.12R
MIDWAY NOS*      N/A     81 N/A N/A MISG      30.11R
FRENCH FRIGATE NOT AVBL
$$

PHZ110>124-180-240900-
BUOY REPORTS

STATION/POSITION TIME  TEMP    WIND        PRES    WAVE   SWELL
                       AIR SEA DIR/SP/G            HT/PER HT/DIR
                 (UTC) (F)     (DEG/KT/KT) (MB)    (FT/S) (FT/D)
BUOY 51001       0820   81      80/ 16/ 17 1019.8
BUOY 51101       0750   81 82   80/ 17/ 21 1019.9R   6/ 8   3/140
BUOY 51100       NOT AVBL
BUOY 51002       0820   81      80/ 16/ 21 1014.8
BUOY 51003       0750   81 82   70/ 16/ 17 1015.6R   6/ 8   3/ 80
BUOY 51004       0750      80   60/ 16/ 19 1016.0R   8/ 8   5/ 80
WAIMEA BAY#      0802      78                N/A     4/ 8
MOKAPU POINT#    0804      81                N/A     7/ 8   2/ 60
LANAI#           NOT AVBL
BARBERS PT 2#    NOT AVBL
PAUWELA#         0809      80                N/A     7/ 8   2/ 90
HILO#            0827      80                N/A     7/ 8   2/100
KANEOHE BAY#     NOT AVBL
KANEOHE BAY 2#   NOT AVBL
HANALEI#         0822      81                N/A     6/ 8
KAHULUI HARBOR   0806   77 81   40/ 16/ 21 1017.3
HONOLULU HARBOR  0806   80 81   40/  3/  7 1018.0
PEARL HARBOR#    0800      81                N/A     4/ 8   2/170
KILO NALU        NOT AVBL
HILO HARBOR      0806   73 78  230/  3/  5 1018.0
MOKUOLOE         0736   80 83   80/ 10/ 17 1018.1R
NAWILIWILI       0818   80      60/ 14/ 18 1018.2
WHOTS BUOY       NOT AVBL
BUOY 51028       NOT AVBL
$$

......................KEY........................................
  SKY/WX - SKY CONDITIONS/PRESENT WEATHER
  TMP    - TEMPERATURE IN FAHRENHEIT
  DWPT   - DEWPOINT IN FAHRENHEIT
  RH     - RELATIVE HUMIDITY IN PERCENT
  WIND   - DIRECTION AND SPEED /MPH FOR ISLANDS...KTS FOR BUOYS/
  PRES   - MEAN SEA LEVEL PRESSURE IN INCHES OF HG
  VSB    - VISIBILITY IN MILES
  HX     - HEAT INDEX
  WCI    - WIND CHILL INDEX
  VRB    - VARIABLE WIND DIRECTION
  N/A    - NOT AVAILABLE




USA.gov is the U.S. government's official web portal to all federal, state and local government web resources and services.